Theta_e
317 318 327 329 335 336 334 331 329 328 326 325 325 326 327 325 322 322 324 332 335 333 330 330 328 329 328 329 328 327 326 325 325 325 325 323 324 332 339 335 332 334 334
316 316 316 322 328 331 332 330 329 327 326 326 326 330 327 326 326 324 324 328 331 333 332 329 326 324 322 321 321 321 321 321 321 321 322 325 325 335 337 337 336 337 337
317 314 314 316 318 325 331 329 328 328 332 332 333 333 332 331 328 324 325 325 326 328 328 323 321 321 322 325 324 324 324 324 324 323 321 321 325 331 337 336 334 335 336
323 319 316 317 314 326 326 327 328 333 333 333 333 333 328 330 325 324 324 324 323 322 320 321 322 322 322 321 321 320 320 321 323 324 324 321 320 323 329 332 329 326 324
322 322 316 315 313 331 332 329 330 331 332 332 332 322 321 320 316 315 319 322 322 321 319 317 316 315 315 316 317 318 319 321 323 324 324 324 322 321 322 329 327 323 323
321 320 317 313 313 320 329 331 331 332 332 324 316 315 315 314 313 313 313 314 314 314 314 312 311 309 309 309 309 310 311 312 314 316 319 323 323 323 323 329 334 330 324
318 320 317 314 314 315 318 321 322 321 326 319 314 314 313 312 310 309 308 307 307 306 305 304 304 304 304 304 304 304 304 304 304 305 309 313 317 322 324 325 329 329 330
317 319 319 315 315 315 315 316 315 316 316 314 313 312 309 308 305 304 304 304 304 303 303 303 303 303 303 304 304 304 304 304 304 304 303 303 308 314 318 321 325 329 329
316 318 320 316 315 314 314 315 314 314 312 311 310 309 307 304 304 304 304 304 303 303 303 303 304 304 305 305 305 305 305 305 305 305 304 304 303 304 309 314 318 322 328
316 316 319 318 314 314 313 313 313 311 310 309 308 306 304 304 304 304 304 304 304 304 304 305 305 306 306 306 306 306 305 305 305 304 304 303 303 303 303 305 310 315 319
316 315 316 318 315 314 313 313 312 310 309 308 308 304 303 304 305 304 304 304 304 304 305 305 305 305 305 305 305 305 305 305 304 303 303 302 303 303 303 303 303 307 313
317 316 315 316 316 314 314 313 312 310 308 308 308 304 304 305 306 305 304 304 304 304 304 304 304 304 305 304 304 304 304 304 304 303 302 302 302 301 302 302 302 302 302
317 316 316 315 316 315 314 313 312 310 308 308 308 304 304 305 307 306 305 304 304 304 304 304 304 304 304 304 304 304 304 304 303 303 303 301 301 301 301 301 301 301 301
316 316 316 316 315 316 315 314 313 311 308 308 308 305 304 304 306 306 305 304 304 304 304 304 304 304 304 304 304 303 303 303 303 302 301 301 301 300 300 300 301 301 301
315 315 315 315 315 315 315 315 313 312 309 307 307 306 304 304 305 306 306 305 304 304 304 304 304 305 304 304 303 303 303 303 302 301 300 300 300 300 299 299 300 300 300
315 315 315 315 315 314 314 315 314 313 310 308 307 307 305 303 304 305 305 304 303 303 303 303 304 304 303 303 302 302 302 302 302 301 300 299 299 299 299 299 299 300 300
316 315 315 315 314 314 314 314 314 314 312 309 307 307 306 303 303 304 304 303 302 302 303 303 303 303 303 303 302 301 301 301 301 300 299 298 298 298 298 298 298 299 304
316 316 316 315 315 314 314 314 313 313 313 310 307 306 305 303 302 303 303 302 301 301 301 302 303 303 303 302 301 301 301 301 301 299 298 297 298 298 297 297 297 297 297
315 316 316 315 315 314 314 313 312 312 311 310 307 306 305 304 303 302 302 301 300 300 300 301 302 302 302 302 301 300 300 300 300 298 297 297 296 296 296 296 296 296 296
314 314 314 315 314 314 313 312 312 311 310 309 307 306 304 304 303 302 301 300 300 299 299 300 301 301 301 301 301 300 299 299 298 297 297 296 296 295 295 295 295 295 295
314 314 314 314 314 314 314 313 311 311 310 309 308 306 304 304 303 302 301 300 299 299 299 299 300 300 301 301 300 300 299 298 297 296 295 295 295 294 294 294 294 294 294
314 314 314 314 314 314 314 313 312 312 311 309 308 306 305 303 303 302 301 300 299 298 298 299 299 300 300 300 299 299 298 297 296 296 295 294 294 294 293 293 293 293 294
314 314 313 314 314 314 313 311 311 309 308 308 307 305 305 304 303 302 301 299 298 298 297 298 299 299 299 299 299 298 298 297 296 295 296 294 294 294 293 293 294 294 294
313 314 314 313 312 313 313 312 311 312 311 311 310 308 307 305 304 303 301 299 298 297 297 297 298 298 298 298 298 298 298 297 296 295 294 294 294 293 293 293 294 294 293
314 314 314 313 312 311 311 311 312 311 310 310 309 308 306 305 303 302 301 299 298 297 296 296 297 297 298 298 298 297 297 297 296 295 294 294 293 292 292 293 292 292 292
313 313 314 313 313 311 310 310 310 309 310 310 309 308 307 305 303 302 300 299 298 297 296 296 296 296 297 297 297 297 296 296 297 296 294 294 293 293 292 292 292 291 291
Wind_Speed
27 24 23 22 20 17 15 14 13 12 12 11 11 11 10 9 7 6 5 5 4 5 6 7 5 6 3 3 2 2 2 1 0 2 2 4 5 6 5 7 7 7 7
21 24 23 21 20 19 16 15 14 13 12 11 10 10 11 11 10 10 9 8 8 8 5 5 4 5 5 4 5 5 4 3 2 1 1 1 3 6 3 4 7 6 6
18 20 21 19 20 19 18 16 14 12 11 10 11 11 10 10 11 12 12 11 10 9 8 5 3 4 5 5 6 5 3 3 3 2 2 3 3 3 3 0 1 2 4
15 18 18 19 19 18 18 17 15 15 14 15 15 15 11 9 10 10 11 11 10 10 9 6 5 5 6 7 8 7 6 5 5 5 4 4 4 4 2 4 4 4 5
13 17 18 19 18 17 15 16 17 16 17 17 16 13 13 13 12 8 9 10 11 11 10 9 9 9 10 10 11 10 10 8 7 7 7 6 6 5 4 4 5 5 5
12 16 19 19 18 20 21 19 20 21 19 15 13 9 12 12 10 9 9 10 10 10 9 8 8 9 9 10 10 11 11 11 11 11 11 10 8 8 7 6 6 6 7
13 16 19 20 20 20 21 21 20 20 22 18 13 12 12 10 9 9 9 9 9 8 8 7 5 5 5 5 5 6 7 8 10 11 11 12 12 12 12 11 8 9 8
14 16 19 22 22 21 21 21 21 20 20 18 14 13 11 10 9 9 8 8 7 6 5 4 3 2 3 3 4 5 5 6 6 7 8 10 13 14 17 15 14 11 11
16 18 19 23 23 22 21 23 21 21 20 17 16 14 12 11 8 8 7 6 5 4 4 3 2 2 2 3 4 5 5 6 7 8 8 8 9 13 16 17 17 16 11
18 20 22 24 24 23 24 23 22 22 20 18 16 15 13 12 10 9 9 8 7 6 4 3 3 4 4 5 5 5 6 6 7 8 8 8 9 11 13 15 16 17 19
22 23 24 26 27 26 26 25 24 24 22 20 19 17 15 14 12 11 9 8 8 6 5 4 4 5 6 6 7 7 7 7 7 8 9 9 9 10 11 12 14 17 18
25 24 26 28 29 30 29 28 27 27 25 23 21 19 18 16 14 13 12 11 9 7 6 5 5 6 6 7 8 9 10 10 9 10 10 10 10 11 11 11 12 13 15
25 27 28 29 30 32 32 31 31 30 29 26 24 23 22 20 18 16 14 12 10 8 7 7 7 7 8 9 10 10 11 11 11 11 11 10 10 11 11 11 11 11 13
30 29 31 31 33 34 34 35 34 33 32 30 28 27 26 24 21 19 16 14 12 10 9 9 8 9 10 11 12 12 13 13 13 12 12 11 11 11 11 12 12 12 12
35 33 33 33 34 36 37 37 37 37 36 33 32 31 29 27 24 22 19 17 15 12 11 10 10 11 12 13 13 13 13 13 13 13 12 12 11 11 10 10 11 9 9
34 36 35 35 36 37 38 39 39 39 38 37 36 34 32 30 27 25 23 20 18 16 13 12 11 10 10 11 11 11 11 12 12 12 12 11 11 11 10 9 8 7 5
34 35 36 38 39 40 40 41 41 41 41 40 39 37 35 33 31 29 26 24 21 18 16 13 12 11 11 11 11 11 11 12 12 12 10 9 7 7 6 6 5 2 6
37 37 38 40 41 42 43 43 44 43 42 43 42 40 38 36 34 32 29 26 23 20 18 16 14 13 12 11 11 11 12 12 12 11 9 8 7 6 5 5 6 6 7
43 41 40 40 43 43 44 46 46 45 45 45 44 43 40 38 36 35 32 29 26 24 22 19 17 15 13 12 11 11 11 12 11 9 8 8 6 5 5 6 6 5 5
39 38 40 40 41 42 45 48 49 48 47 47 45 45 42 41 39 37 35 33 30 28 25 22 19 16 13 12 11 11 11 10 9 7 7 7 6 6 6 5 5 5 8
34 32 33 37 39 43 47 50 52 52 50 49 48 46 44 43 42 40 38 36 34 30 26 24 23 18 15 13 11 9 9 7 5 6 5 2 2 0 3 6 9 10 11
29 27 25 29 35 41 45 48 51 50 51 50 49 48 47 46 44 43 41 39 36 33 32 29 26 21 18 15 11 9 4 6 10 10 8 7 4 3 6 8 7 8 8
25 24 24 26 31 37 41 45 49 49 50 52 53 50 50 47 45 45 42 40 37 35 33 30 28 25 22 17 12 7 4 4 6 9 13 11 9 7 8 7 8 6 6
25 20 21 27 33 35 38 42 46 51 53 53 52 50 50 49 48 47 44 41 39 37 35 33 30 27 24 20 15 12 10 12 7 5 9 11 10 8 8 9 7 7 7
24 20 21 24 28 33 38 41 43 47 50 49 48 49 49 50 50 48 45 43 41 39 37 35 34 31 27 24 20 15 13 13 14 14 12 11 9 10 7 6 6 7 4
18 18 21 22 26 30 33 37 40 43 47 47 47 45 47 50 50 48 46 44 43 42 41 38 35 32 30 27 22 19 16 14 15 16 16 14 12 9 10 9 6 8 8
Wind_Direction
187 191 193 187 184 190 192 190 186 186 186 186 191 191 194 202 213 214 194 153 154 200 203 219 228 227 217 207 212 196 189 187 34 49 57 58 60 66 49 27 33 36 38
189 192 194 196 195 195 200 201 197 195 199 196 198 200 203 207 207 215 208 199 196 206 210 227 235 251 243 228 237 242 237 221 228 244 313 62 83 110 62 38 46 38 19
190 193 195 195 198 198 201 205 205 202 202 198 199 203 202 209 210 215 211 213 215 222 231 234 248 250 265 265 263 270 279 279 283 275 252 225 195 161 140 109 13 339 351
188 197 198 197 194 196 203 207 207 197 200 202 207 207 212 195 217 217 218 220 224 243 264 279 273 266 261 259 265 274 276 272 269 273 266 257 247 236 222 262 278 293 297
195 200 199 197 196 184 198 199 200 201 207 208 207 221 226 235 248 239 223 223 230 242 247 254 263 271 271 270 272 272 271 270 266 262 258 259 256 250 252 260 273 284 285
216 206 201 200 204 194 198 198 196 199 207 213 231 225 229 235 241 238 231 232 238 244 254 263 268 268 267 272 277 278 276 273 268 262 256 252 252 254 242 248 253 266 280
224 214 207 207 208 208 207 212 214 216 222 238 238 230 229 228 226 226 227 233 241 249 256 259 258 259 271 273 273 279 284 278 272 268 261 253 246 245 245 244 244 253 268
227 222 215 211 213 215 215 217 222 225 230 237 238 232 228 225 223 225 225 227 228 226 224 227 231 248 265 284 295 296 294 290 287 288 279 264 252 246 249 250 248 246 247
224 223 223 219 219 219 219 222 227 229 230 226 228 229 228 226 224 227 227 224 227 226 219 212 224 250 289 308 316 310 302 297 294 292 290 283 265 257 251 253 256 256 253
226 225 224 223 225 223 222 224 226 230 225 224 224 223 220 217 220 221 222 220 223 228 237 258 291 312 324 326 327 320 312 306 302 293 284 277 271 267 265 260 258 259 255
226 225 224 224 225 226 225 227 227 226 226 225 223 221 216 218 221 218 221 218 222 233 249 271 291 309 323 327 332 332 325 318 305 291 284 279 275 270 268 266 263 260 262
235 233 228 225 225 226 226 227 228 228 225 228 227 224 219 220 221 219 219 219 227 238 250 269 289 306 315 327 335 335 332 327 316 304 292 282 274 267 264 263 262 262 264
260 241 239 232 228 228 228 228 228 228 228 228 227 225 223 224 226 222 223 222 230 243 261 277 289 300 312 324 330 331 329 326 319 310 300 288 277 270 267 262 259 259 262
259 252 242 238 235 232 230 230 231 229 229 228 228 226 224 225 225 223 223 228 235 242 255 270 286 303 315 323 325 328 329 326 321 314 305 294 282 275 271 268 261 256 253
258 255 249 242 240 237 234 232 232 231 230 230 229 229 227 226 226 226 226 228 233 243 253 265 283 297 306 314 318 321 322 320 318 313 306 297 286 276 270 268 265 266 269
264 259 251 247 244 240 239 237 235 234 232 230 231 232 230 227 227 227 227 227 228 233 243 257 271 284 297 306 309 313 313 312 311 308 303 294 284 277 269 261 261 265 281
277 268 260 250 244 243 241 239 237 237 234 232 232 232 230 228 227 227 228 227 227 229 236 244 260 275 290 301 305 311 313 315 316 309 298 285 278 278 271 259 246 169 96
279 272 265 255 248 244 242 241 239 237 235 234 233 231 229 227 228 229 229 227 228 231 235 241 253 266 281 294 302 305 308 309 311 297 285 270 265 260 264 268 258 255 255
282 276 268 259 252 246 243 241 240 239 236 235 232 231 230 229 229 230 231 230 230 230 231 236 243 256 273 288 297 301 305 303 295 278 257 242 244 264 262 264 272 268 270
286 279 268 261 253 246 241 240 238 237 235 235 233 232 230 230 230 231 230 229 229 228 230 235 240 251 262 277 290 301 307 300 284 261 245 241 258 264 261 259 266 284 298
294 286 270 259 250 243 238 236 235 234 233 233 232 231 230 231 230 231 230 229 229 229 232 232 237 241 253 268 283 295 301 290 248 216 193 212 209 231 304 292 293 300 301
306 295 275 260 252 249 243 240 236 235 234 234 233 229 229 229 229 230 230 229 229 227 227 230 234 237 245 255 266 288 246 258 242 225 232 277 229 336 324 309 304 309 308
314 301 281 263 253 248 245 239 235 233 233 231 229 228 228 228 229 230 230 230 230 229 230 232 233 235 238 242 253 256 239 216 179 232 246 230 249 296 310 300 305 306 313
314 307 285 261 252 247 241 237 235 234 232 234 235 232 230 228 228 229 228 229 229 229 230 230 231 233 237 239 241 251 257 251 243 245 252 248 234 282 302 310 311 315 323
303 302 286 264 251 247 243 238 234 232 234 237 236 233 231 230 229 228 228 227 227 229 229 230 230 231 235 240 243 243 244 250 254 247 255 254 257 286 291 311 331 344 356
305 289 282 266 252 245 242 241 238 235 233 233 235 235 233 231 230 229 228 228 228 229 228 229 230 231 236 238 239 244 250 247 256 256 256 261 271 281 303 310 322 342 339